Location: Unspecified
(0.0000°N, 0.0000°E)
Time: 16:25:21
(UTC+00:00)

Vanguard 1 - Pass Details

Date: 15 December 2025
Orbit: 651 x 3820 km, 34.2° (Epoch: 14 January)

Event Time Altitude Azimuth Distance (km) Brightness Sun altitude
Rises 03:11:00 0° 219° (SW) 5,430 13.8 -37.1°
Reaches altitude 10° 03:16:05 10° 207° (SSW) 3,827 13.1 -36.0°
Maximum altitude 03:23:00 24° 157° (SSE) 2,156 12.2 -34.5°
Drops below altitude 10° 03:27:42 10° 104° (ESE) 2,517 12.9 -33.4°
Sets 03:30:15 0° 88° (E) 3,232 13.5 -32.9°
